Location: Caronte
(48.8667°N, 2.4000°E)
Time: 17:08:59
(UTC+00:00)

Daily predictions for brighter satellites

Satellite Brightness Start Highest point End
(mag) Time Altitude Azimuth Time Altitude Azimuth Time Altitude Azimuth
Meteor PRIRODA 4.1 18:11:07 10° S 18:14:36 64° W 18:18:08 10° NNW
Cosmos 2056 Rocket 4.3 18:11:48 10° NNW 18:16:56 59° WSW 18:22:07 10° S
Cosmos 2360 Rocket 2.7 18:11:53 10° S 18:17:01 37° ESE 18:22:11 10° NE
CZ-4 R/B 2.2 18:14:55 10° SE 18:18:20 30° ENE 18:21:42 10° N
USA 308 3.3 18:15:33 10° WNW 18:18:43 37° N 18:22:09 10° E
SWAS 4.4 18:14:47 10° SSW 18:18:59 78° ESE 18:23:14 10° NNE
Cosmos 1707 2.7 18:16:57 10° N 18:20:42 59° ENE 18:24:25 10° SSE
ATLAS 3B R/B 4.3 18:19:16 10° ESE 18:21:00 11° E 18:22:46 10° E
Cosmos 1975 3.9 18:21:07 10° SE 18:24:11 23° E 18:27:15 10° NE
ADEOS 4.2 18:20:35 10° S 18:25:45 62° WSW 18:30:57 10° NNW
KORONAS-FOTON 3.6 18:24:13 10° N 18:27:55 73° E 18:31:36 10° SSE
CENTAUR R/B 4.3 18:22:24 10° WNW 18:28:07 30° NNW 18:34:54 10° NE
Cosmos 1674 2.4 18:26:44 10° N 18:30:20 78° E 18:33:55 10° SSE
Cosmos 2285 Rocket 4.0 18:24:16 10° S 18:30:33 69° ESE 18:36:49 10° NNE
Cosmos 1331 Rocket 4.2 18:27:02 10° NNW 18:32:11 51° ENE 18:37:19 10° SE
JB-3 4.2 18:32:18 10° NNE 18:36:06 89° ESE 18:39:56 10° SSW
Cosmos 1842 4.0 18:33:47 10° NNW 18:37:32 56° W 18:41:15 10° S
Cosmos 1470 Rocket 4.0 18:34:18 10° SSE 18:38:21 40° E 18:42:26 10° NNE
Cosmos 1726 2.4 18:35:27 10° SSE 18:38:35 36° E 18:41:44 10° NNE
Cosmos 2084 3.4 18:35:31 10° NW 18:39:16 69° SW 18:43:06 10° SSE
Cosmos 1452 Rocket 3.5 18:34:52 10° NNW 18:40:11 74° ENE 18:45:27 10° SSE
USA 215 3.8 18:35:58 10° ENE 18:41:55 36° SE 18:47:50 10° SSW
COSMOS 2455 3.9 18:38:52 10° NNW 18:44:06 29° NE 18:48:29 13° E
Cosmos 494 Rocket 3.9 18:40:01 10° SSW 18:45:15 71° ESE 18:50:28 10° NNE
Okean 3 3.6 18:41:26 10° N 18:45:28 49° ENE 18:49:28 10° SSE
Meteor 2-10 4.4 18:40:41 10° SSE 18:46:09 49° E 18:51:39 10° NNE
SPOT 1/Viking Rocket 4.3 18:43:14 10° SE 18:47:49 34° ENE 18:52:26 10° N
PAYLOAD B 4.2 18:42:58 10° SSE 18:48:34 86° ENE 18:54:10 10° NNW
Cosmos 1048 Rocket 4.0 18:44:08 10° S 18:49:25 65° ESE 18:54:46 10° NNE
Cosmos 2341 Rocket 4.0 18:44:23 10° N 18:50:42 86° E 18:57:01 10° S
BREEZE-M R/B 4.2 18:46:52 10° W 18:51:38 83° N 19:00:39 14° E
Cosmos 2366 rocket 3.9 18:45:31 10° N 18:51:43 70° ENE 18:57:50 10° SSE
ISS -3.1 18:49:59 10° W 18:53:16 50° N 18:55:41 16° ENE
SL-8 Rocket 4.0 18:47:23 10° N 18:53:40 82° E 18:59:57 10° S
Iridium 2 3.6 18:50:35 10° N 18:54:02 73° W 18:57:27 10° S
DMSP B5D1-3 4.4 18:50:59 10° NNE 18:56:05 78° ESE 19:01:12 10° S
USA 305 3.4 18:54:42 10° NW 18:56:35 20° N 18:57:46 15° NE
Cosmos 1844 Rocket 3.4 18:56:07 10° NW 19:01:33 55° WSW 19:06:57 10° S
SL-16 R/B 3.0 18:58:37 10° SW 19:04:11 55° NW 19:09:47 10° NNE
Cosmos 1805 3.4 19:01:43 10° SSE 19:05:19 46° E 19:08:58 10° NNE
Cosmos 1703 Rocket 3.7 19:01:16 10° N 19:05:37 53° ENE 19:09:36 12° SSE
ADEOS Rocket 3.9 19:00:02 11° SE 19:07:02 46° ENE 19:14:04 10° N
BREEZE M DEB (TANK) 3.8 19:05:28 10° S 19:05:46 12° SSE 19:05:46 12° SSE
SL-14 R/B 3.4 19:03:29 10° N 19:07:23 54° ENE 19:10:26 15° SSE
Cosmos 2219 Rocket 2.4 19:03:25 10° S 19:08:41 45° ESE 19:14:00 10° NE
USA 306 3.3 19:05:39 10° WNW 19:09:21 45° NNE 19:11:24 23° ENE
NOSS 2-3 (E) 3.8 19:07:37 10° S 19:10:59 34° ESE 19:13:24 18° ENE
CSL-04 Debris 4.2 19:09:46 10° SSE 19:15:08 64° ENE 19:20:32 10° N
Okean 2 3.7 19:11:25 10° N 19:15:18 44° ENE 19:17:04 27° SE
CZ-4C R/B 2.8 19:12:27 10° NNE 19:15:52 70° ESE 19:19:15 10° S
SL-8 R/B 3.6 19:11:57 10° W 19:16:44 85° S 19:19:19 27° E
Cosmos 2218 Rocket 4.0 19:10:37 10° N 19:16:47 82° W 19:22:55 10° S
Cosmos 1943 Rocket 3.9 19:12:59 10° N 19:16:56 19° NE 19:19:16 15° ENE
Cosmos 1933 Rocket 3.6 19:12:59 10° S 19:17:17 55° E 19:21:35 10° NNE
USA 267 3.3 19:13:24 21° ESE 19:18:04 70° NNE 19:24:36 10° NW
USA 186 1.5 19:17:05 34° SE 19:18:10 62° ENE 19:21:09 10° N
USA 307 3.0 19:16:18 10° NW 19:18:44 31° NNE 19:19:18 28° NE
APEX 3.9 19:17:14 10° NNW 19:21:01 34° NE 19:21:49 30° ENE
CZ-4B R/B 3.4 19:17:26 10° S 19:22:42 70° WSW 19:28:01 10° NNW
Feng Yun 1-1 Rocket 4.4 19:20:09 10° SSE 19:26:03 86° WSW 19:31:53 10° NNW
PSLV R/B 4.4 19:22:22 10° S 19:26:05 54° W 19:29:55 10° NNW
Okean O Rocket 1.6 19:24:10 11° SSE 19:28:27 83° WSW 19:32:55 10° NNW
USA 81 4.2 19:23:30 10° S 19:28:45 78° W 19:34:03 10° N
CZ-4C R/B 4.2 19:25:13 10° WNW 19:29:39 25° NNW 19:34:57 10° NE
Cosmos 2322 Rocket 3.0 19:24:35 10° SW 19:30:03 52° NW 19:35:33 10° NNE
Landsat 7 4.4 19:26:04 10° S 19:30:41 56° W 19:35:21 10° NNW
Okean 1-7 3.3 19:26:32 10° NNW 19:30:49 68° W 19:35:06 10° S
SPOT 5 4.3 19:31:11 20° ENE 19:31:15 20° ENE 19:34:32 10° NNE
CARTOSAT-1 4.0 19:32:57 37° E 19:33:43 40° ENE 19:37:46 10° N
Cosmos 2278 Rocket 2.9 19:28:50 10° NNW 19:34:08 38° NE 19:36:01 30° E
Cosmos 1340 Rocket 3.4 19:30:44 10° NNW 19:34:44 58° W 19:38:40 10° S
Lacrosse 5 3.1 19:31:29 10° W 19:36:13 37° NNW 19:40:18 13° NE
Resurs 01 Rocket 1.7 19:36:14 36° SE 19:37:50 59° ENE 19:42:14 10° N
CSL-04 Rocket 3.5 19:34:22 17° SSE 19:38:30 87° ENE 19:43:50 10° NNW
SL-08 R/B 4.4 19:34:36 10° N 19:40:48 71° E 19:45:00 21° SSE
ERS-1 Rocket 4.5 19:41:43 20° ENE 19:41:46 20° ENE 19:45:20 10° NNE
SJ-6B 4.0 19:39:30 10° S 19:43:20 42° W 19:47:11 10° NNW
Cosmos 1818 3.8 19:38:38 10° NNW 19:44:03 56° NE 19:45:51 39° ESE
NOSS 7 (H) 4.3 19:41:46 10° SSW 19:45:50 70° SE 19:45:50 70° SE
Okean-O 2.5 19:51:51 49° SSE 19:53:00 77° ENE 19:57:27 10° NNW
CZ-4 R/B 3.4 19:49:48 10° SSW 19:53:06 26° W 19:56:22 10° NW
Cosmos 1241 Rocket 4.4 19:46:56 10° NW 19:53:16 84° SW 19:56:08 34° SSE
BREEZE-M DEB (TANK) 2.9 19:49:25 10° WNW 19:53:38 77° W 19:53:38 77° W
BREEZE-M DEB (TANK) 3.1 19:51:13 10° W 19:53:54 60° SSW 19:54:40 49° SSE
USA 308 2.4 19:50:32 10° WNW 19:54:06 83° SSW 19:54:06 83° SSW
Cosmos 1766 3.6 19:56:26 47° NE 19:56:26 47° NE 19:59:19 10° NNE
Cosmos 2333 Rocket 2.8 19:50:34 10° SW 19:56:08 58° WNW 20:01:46 10° NNE
Cosmos 1869 Rocket 3.4 19:55:10 38° S 19:56:49 78° E 20:01:12 10° NNE
Cosmos 2360 Rocket 3.4 19:55:36 10° SW 20:00:57 43° NW 20:06:21 10° NNE
COSMOS 2428 2.6 19:55:36 10° SSW 20:01:11 63° ESE 20:06:48 10° NNE
Cosmos 2242 Rocket 3.5 19:58:01 10° N 20:02:30 86° W 20:03:34 52° S
Cosmos 1605 Rocket 4.4 19:56:51 10° N 20:02:31 38° ENE 20:02:57 38° E
Cosmos 2322 3.6 19:57:08 10° SSW 20:02:51 81° ESE 20:08:36 10° NNE
Cosmos 2237 Rocket 4.4 20:10:08 11° NE 20:10:08 11° NE 20:10:16 10° NE
Cosmos 2369 Rocket 4.2 20:06:39 10° N 20:09:45 15° NNE 20:10:56 14° NE
ATLAS 3B R/B 2.8 20:03:21 10° SSW 20:10:01 55° ESE 20:17:12 10° NE
MOS 1 4.2 20:12:48 53° SSE 20:14:12 79° ENE 20:19:52 10° NNW
Cosmos 1992 Rocket 3.9 20:15:02 10° NNW 20:20:18 88° WSW 20:20:54 70° SSE
CENTAUR R/B 4.4 20:14:58 10° NW 20:21:13 29° NNE 20:26:45 15° ENE
MetOp-B 4.0 20:22:13 67° E 20:22:28 68° ENE 20:27:49 10° N
NOSS 0 Rocket 4.4 20:24:46 42° ENE 20:24:46 42° ENE 20:29:09 10° NE
Cosmos 1934 Rocket 3.9 20:17:17 10° N 20:23:42 85° E 20:25:24 52° SSE
Spot 2 Rocket 4.4 20:25:32 34° NE 20:25:32 34° NE 20:29:12 10° N
NOSS 2-3 (C) 3.9 20:21:21 10° WSW 20:25:03 57° NW 20:25:23 55° NNW
USA 215 3.2 20:19:39 14° NE 20:25:22 84° NNW 20:31:55 10° WSW
Ariane Rocket 3.5 20:28:25 47° NE 20:28:25 47° NE 20:32:37 10° N
NOSS 2-3 (D) 4.0 20:26:27 10° WSW 20:29:43 51° WNW 20:29:43 51° WNW
ISS -1.7 20:26:54 10° WNW 20:28:36 27° WNW 20:28:36 27° WNW
COSMOS 2455 2.8 20:24:36 10° NW 20:30:39 77° WSW 20:31:38 62° S
Terra 3.0 20:41:30 32° NNE 20:41:30 32° NNE 20:44:24 10° N
USA 306 4.5 20:41:52 10° WNW 20:43:54 29° WNW 20:43:54 29° WNW
IRS-1A Rocket 4.2 20:50:23 72° WSW 20:50:30 72° WSW 20:56:02 10° NNW
ADEOS Rocket 4.3 20:47:00 19° SSW 20:52:24 49° W 20:59:42 10° NNW
Cosmos 2219 Rocket 3.6 20:47:38 10° WSW 20:52:45 36° NW 20:57:56 10° NNE
USA 267 3.7 21:00:46 47° SSW 21:01:17 48° SW 21:07:37 10° WNW
Cosmos 1943 Rocket 2.5 20:55:59 10° NNW 21:00:47 61° N 21:00:47 61° N
Meteor 2-5 Rocket 3.9 20:58:03 10° NNW 21:03:17 71° NW 21:03:17 71° NW
SPOT 5 3.9 21:10:23 41° NW 21:10:23 41° NW 21:13:31 10° NNW
SPOT 3 Rocket 4.4 21:15:15 47° NNW 21:15:15 47° NNW 21:18:53 10° NNW
Resurs 01 Rocket 4.0 21:13:47 16° WSW 21:14:40 17° W 21:17:37 10° NW
Cosmos 2278 Rocket 3.1 21:12:57 10° NW 21:17:52 42° W 21:17:52 42° W
ERS-1 Rocket 4.0 21:21:41 42° NNW 21:21:41 42° NNW 21:25:05 10° NNW
Lacrosse 5 3.3 21:15:30 10° NW 21:19:29 34° N 21:19:29 34° N
CZ-4C R/B 4.4 21:15:22 10° NW 21:20:18 24° NNE 21:23:43 17° NE
COSMOS 2428 4.5 21:41:00 10° WSW 21:45:52 28° NW 21:50:45 10° NNE
Cosmos 2237 Rocket 3.8 21:51:55 29° N 21:51:55 29° N 21:54:49 10° NNE
Cosmos 2369 Rocket 3.7 21:49:36 10° NNW 21:52:42 32° N 21:52:42 32° N
ATLAS 3B R/B 3.6 21:54:08 10° WSW 22:00:57 49° NW 22:08:16 10° NE
USA 215 4.0 22:07:03 45° NNE 22:08:03 48° NNW 22:14:16 10° W
CENTAUR R/B 3.6 22:06:07 10° NW 22:13:47 51° NE 22:13:52 51° NE
Terra 4.4 22:20:15 16° NW 22:20:15 16° NW 22:21:36 10° NW
CZ-4C R/B 3.8 23:03:58 10° NW 23:08:48 40° N 23:08:48 40° N
SL-16 R/B 4.4 23:38:11 21° N 23:38:11 21° N 23:40:32 10° NNE
